Terminal Aerodrome Forecast
Issued by NWS Grand Forks, ND

Home | Current Version | Previous Version | Text Only | Print | Product List | Glossary Off
Versions: 1 2 3 4 5 6 7 8 9 10 11 12 13 14

000
FTUS43 KFGF 132300
TAFFAR
TAF
KFAR 132339Z 1400/1424 20014KT P6SM BKN060
     FM140200 27010KT P6SM SCT120
     FM141500 30012KT P6SM SKC=

USA.gov is the U.S. government's official web portal to all federal, state and local government web resources and services.